Weather History for KHSV - August, 2014

Change the Weather History Date:

Tuesday, August 12, 2014

  Actual Average Record
Temperature  
Mean Temperature 80 °F 81 °F  
Max Temperature 91 °F 91 °F 103 °F (2010)
Min Temperature 68 °F 70 °F 57 °F (2004)
Degree Days  
Heating Degree Days 0 0  
Month to date heating degree days 0 0  
Since 1 June heating degree days 0 1  
Since 1 July heating degree days 0 0  
Cooling Degree Days 15 16  
Month to date cooling degree days 183 192  
Year to date cooling degree days 1248 1317  
Since 1 June cooling degree days 977 1054  
Growing Degree Days 30 (Base 50)    
Moisture  
Dew Point 68 °F    
Average Humidity 68    
Maximum Humidity 93    
Minimum Humidity 43    
Precipitation  
Precipitation T in 0.12 in 1.59 in (1996)
Month to date precipitation 0.47 1.47  
Year to date precipitation 35.54 34.18  
Snow  
Snow 0.00 in - - ()
Month to date snowfall 0.0  
Since 1 June snowfall 0.0  
Since 1 July snowfall 0.0  
Snow Depth 0.00 in    
Sea Level Pressure  
Sea Level Pressure 29.91 in    
Wind  
Wind Speed 5 mph (NW)    
Max Wind Speed 16 mph    
Max Gust Speed 21 mph    
Visibility 8 miles    
Events      
T = Trace of Precipitation, MM = Missing Value Source: NWS Daily Summary

Daily Weather History Graph

Daily Weather History Graph

Search for Another Location

Airport or City:

Trip Planner

Search our weather history database for the weather conditions in past years. The results will help you decide how hot, cold, wet, or windy it might be!

Date:

Astronomy

Aug. 12, 2014 Rise Set
Actual Time 6:05 AM CDT 7:38 PM CDT
Civil Twilight 5:38 AM CDT 8:05 PM CDT
Nautical Twilight 5:06 AM CDT 8:37 PM CDT
Astronomical Twilight 4:32 AM CDT 9:11 PM CDT
Moon 8:54 PM CDT (8/12) 8:14 AM CDT (8/12)
Length of Visible Light 14h 26m
Length of Day
13h 32m
Waning Gibbous, 94% of the Moon is Illuminated
Aug 12
Waning Gibbous
Aug 17
Last Quarter
Aug 25
New
Sep 2
First Quarter
Sep 8
Full

Hourly Weather History & Observations

Time (CDT) Temp. Heat Index Dew Point Humidity Pressure Visibility Wind Dir Wind Speed Gust Speed Precip Events Conditions
12:17 AM 77.0 °F - 69.8 °F 78% 29.94 in 10.0 mi NE 3.5 mph - N/A   Overcast
12:53 AM 75.9 °F - 70.0 °F 82% 29.91 in 10.0 mi Calm Calm - N/A   Overcast
1:36 AM 75.2 °F - 71.6 °F 89% 29.93 in 10.0 mi West 3.5 mph - 0.00 in   Mostly Cloudy
1:53 AM 75.0 °F - 71.1 °F 87% 29.90 in 9.0 mi Calm Calm - 0.00 in   Overcast
2:39 AM 75.2 °F - 71.6 °F 89% 29.92 in 10.0 mi Calm Calm - N/A   Mostly Cloudy
2:53 AM 75.0 °F - 70.0 °F 84% 29.89 in 10.0 mi Calm Calm - N/A   Scattered Clouds
3:53 AM 73.4 °F - 71.6 °F 94% 29.92 in 7.0 mi Calm Calm - N/A   Mostly Cloudy
4:32 AM 73.4 °F - 71.6 °F 94% 29.91 in 6.0 mi Calm Calm - N/A   Scattered Clouds
4:40 AM 73.4 °F - 71.6 °F 94% 29.91 in 5.0 mi Calm Calm - N/A   Mostly Cloudy
4:53 AM 73.9 °F - 71.1 °F 91% 29.89 in 5.0 mi Calm Calm - N/A   Overcast
5:06 AM 73.4 °F - 71.6 °F 94% 29.91 in 5.0 mi Calm Calm - N/A   Overcast
5:53 AM 73.9 °F - 71.1 °F 91% 29.89 in 6.0 mi NW 4.6 mph - N/A   Overcast
6:12 AM 73.4 °F - 71.6 °F 94% 29.92 in 6.0 mi NW 4.6 mph - N/A   Overcast
6:53 AM 73.4 °F - 71.6 °F 94% 29.93 in 4.0 mi NW 6.9 mph - N/A   Overcast
7:53 AM 75.0 °F - 71.1 °F 87% 29.92 in 5.0 mi WNW 3.5 mph - N/A   Mostly Cloudy
8:39 AM 78.8 °F - 71.6 °F 78% 29.94 in 6.0 mi Calm Calm - N/A   Haze
8:53 AM 80.1 °F 83.8 °F 72.0 °F 76% 29.92 in 6.0 mi Variable 3.5 mph - N/A   Haze
9:53 AM 84.0 °F 89.0 °F 71.1 °F 65% 29.92 in 9.0 mi Calm Calm - N/A   Scattered Clouds
10:24 AM 82.4 °F 86.3 °F 69.8 °F 66% 29.94 in 10.0 mi Variable 4.6 mph - N/A   Mostly Cloudy
10:53 AM 84.0 °F 87.8 °F 69.1 °F 61% 29.92 in 10.0 mi Variable 5.8 mph - N/A   Mostly Cloudy
12:40 PM 89.6 °F 92.2 °F 66.2 °F 46% 29.93 in 10.0 mi Variable 4.6 mph - N/A   Mostly Cloudy
12:53 PM 86.0 °F 88.8 °F 66.9 °F 53% 29.90 in 10.0 mi West 4.6 mph - N/A   Mostly Cloudy
1:53 PM 88.0 °F 89.6 °F 64.9 °F 46% 29.88 in 10.0 mi West 6.9 mph 18.4 mph N/A   Mostly Cloudy
2:53 PM 88.0 °F 90.3 °F 66.0 °F 48% 29.87 in 10.0 mi NW 5.8 mph - 0.00 in   Scattered Clouds
3:53 PM 89.1 °F 91.3 °F 66.0 °F 46% 29.86 in 10.0 mi West 10.4 mph 19.6 mph N/A   Scattered Clouds
4:53 PM 88.0 °F 89.3 °F 64.0 °F 45% 29.86 in 10.0 mi WNW 13.8 mph 18.4 mph N/A   Scattered Clouds
5:53 PM 87.1 °F 87.8 °F 63.0 °F 44% 29.86 in 10.0 mi NW 13.8 mph 19.6 mph N/A   Partly Cloudy
6:53 PM 82.9 °F 84.0 °F 63.0 °F 51% 29.88 in 10.0 mi NW 9.2 mph - N/A   Partly Cloudy
7:53 PM 77.0 °F - 62.1 °F 60% 29.91 in 10.0 mi NW 4.6 mph - N/A   Clear
8:53 PM 73.0 °F - 61.0 °F 66% 29.92 in 10.0 mi NNW 4.6 mph - N/A   Clear
9:53 PM 71.1 °F - 61.0 °F 70% 29.95 in 10.0 mi NW 3.5 mph - N/A   Clear
10:53 PM 69.1 °F - 61.0 °F 75% 29.96 in 10.0 mi NW 4.6 mph - N/A   Clear
11:53 PM 68.0 °F - 61.0 °F 78% 29.96 in 10.0 mi NNW 3.5 mph - N/A   Clear